This is the latest recevied weather packets stored in our database for station/object IT9RID. If no packets are shown the sender has not sent any weather packets the latest 1 day(s).
| Time | Temp. | Humidity | Pressure | Rain* | Wind** | Luminosity | Snow |
|---|---|---|---|---|---|---|---|
| 1778098492 | 19.44° C | 46% | 1011.6 hPa | 0 mm | - | - | - |
| 1778097892 | 19.44° C | 47% | 1012 hPa | 0 mm | - | - | - |
| 1778096092 | 20° C | 37% | 1012.3 hPa | 0 mm | - | - | - |
| 1778095492 | 20° C | 36% | 1012.1 hPa | 0 mm | - | - | - |
| 1778094891 | 20° C | 43% | 1012.2 hPa | 0 mm | - | - | - |
| 1778094291 | 20° C | 42% | 1012.4 hPa | 0 mm | - | - | - |
| 1778090690 | 20° C | 62% | 1012.5 hPa | 0 mm | - | - | - |
| 1778088890 | 20° C | 62% | 1012.1 hPa | 0 mm | - | - | - |
| 1778084088 | 20.56° C | 68% | 1012.6 hPa | 0 mm | - | - | - |
| 1778082288 | 20.56° C | 71% | 1012.5 hPa | 0 mm | - | - | - |
| 1778081087 | 22.78° C | 51% | 1012.2 hPa | 0 mm | - | - | - |
| 1778079887 | 23.89° C | 42% | 1011.9 hPa | 0 mm | - | - | - |
| 1778079287 | 22.78° C | 50% | 1011.9 hPa | 0 mm | - | - | - |
| 1778077486 | 23.89° C | 46% | 1011.9 hPa | 0 mm | - | - | - |
| 1778076886 | 24.44° C | 47% | 1011.7 hPa | 0 mm | - | - | - |
| 1778076286 | 24.44° C | 42% | 1011.4 hPa | 0 mm | - | - | - |
| 1778075686 | 24.44° C | 44% | 1011.3 hPa | 0 mm | - | - | - |
| 1778075086 | 25° C | 42% | 1011.6 hPa | 0 mm | - | - | - |
| 1778071485 | 26.11° C | 40% | 1012.1 hPa | 0 mm | - | - | - |
| 1778068484 | 25.56° C | 47% | 1012.1 hPa | 0 mm | - | - | - |
| 1778067884 | 25.56° C | 46% | 1012.3 hPa | 0 mm | - | - | - |
| 1778067284 | 25.56° C | 47% | 1012.4 hPa | 0 mm | - | - | - |
| 1778066684 | 25.56° C | 47% | 1012.5 hPa | 0 mm | - | - | - |
| 1778064883 | 25° C | 46% | 1012.8 hPa | 0 mm | - | - | - |
| 1778064283 | 25° C | 45% | 1013.1 hPa | 0 mm | - | - | - |
* Rain latest hour (hover to see other rain measurements)
** Current wind speed in m/s (hover to see current wind gust speed)